Theta_e
314 313 315 312 311 312 312 313 314 312 312 312 313 313 313 313 309 309 309 305 305 305
315 313 315 314 312 311 313 314 314 314 314 312 313 312 313 312 309 309 309 311 307 305
315 315 313 314 313 313 314 313 314 315 315 313 313 312 311 310 310 309 308 309 308 306
315 315 314 313 313 315 314 314 315 315 315 314 314 313 310 310 310 310 310 309 308 308
315 314 313 314 314 314 315 315 315 315 315 315 315 314 312 311 313 311 311 310 309 308
313 312 312 313 314 315 315 316 315 316 315 315 315 314 314 313 313 312 312 312 310 311
313 313 313 314 315 317 317 315 314 314 315 316 317 316 316 316 314 313 314 313 313 312
313 314 315 316 317 317 317 316 316 315 315 316 316 318 317 318 317 314 314 314 314 314
313 314 314 315 315 315 316 315 315 315 316 317 318 314 313 316 318 317 315 315 316 316
314 314 314 315 314 314 314 314 314 315 316 316 319 312 310 311 316 317 317 316 316 316
315 314 313 312 313 312 313 313 314 315 318 317 320 312 308 308 313 317 317 317 316 316
315 313 312 313 312 312 313 315 317 319 320 319 320 311 308 308 313 314 315 317 316 316
313 312 312 312 316 316 315 317 318 318 318 316 316 311 307 305 310 310 310 312 313 312
319 319 319 316 316 316 316 316 315 314 314 314 314 313 305 300 309 308 308 310 311 313
Wind_Speed
6 3 3 3 4 3 3 4 5 6 5 5 5 5 4 3 4 5 4 5 4 3
6 5 6 6 4 3 4 3 6 5 6 6 6 7 5 4 5 4 5 5 5 4
8 7 6 5 7 6 6 4 5 6 5 5 7 6 5 5 6 5 5 4 6 5
7 7 6 6 7 7 6 7 7 7 7 6 6 6 6 7 8 7 7 6 6 8
7 6 6 7 7 6 7 6 7 7 7 7 7 7 7 7 7 8 9 9 7 9
7 6 8 7 7 6 7 7 7 7 7 7 8 7 8 7 8 9 10 10 9 11
7 8 8 8 7 7 7 7 7 8 8 8 8 8 9 9 9 10 10 10 10 11
7 7 7 7 8 7 7 8 8 8 8 7 7 7 10 10 11 10 11 11 11 11
6 6 8 8 8 7 8 8 7 8 9 10 7 12 15 14 11 13 10 14 11 10
5 6 7 7 7 8 8 6 8 9 8 9 10 14 17 17 9 9 11 10 15 9
6 7 7 6 7 7 6 8 8 8 8 5 9 16 15 12 6 9 12 12 13 11
6 7 6 6 6 6 5 6 6 7 9 8 11 13 15 9 7 7 10 11 10 10
5 5 6 4 6 4 4 6 5 8 7 9 9 12 13 6 3 5 6 9 8 11
6 6 6 4 3 4 6 6 6 6 7 7 7 8 13 7 4 4 6 6 7 8
Wind_Direction
191 180 207 193 205 219 201 203 222 231 240 219 229 244 219 209 243 248 246 255 232 256
188 178 199 223 225 215 238 241 224 239 231 246 242 242 244 251 245 235 249 251 245 233
190 201 212 212 231 234 244 250 263 268 255 266 263 268 257 255 260 253 263 255 250 250
192 203 217 218 231 232 233 236 248 255 261 258 261 267 250 250 255 254 257 253 245 257
197 196 214 223 234 233 231 239 242 250 254 259 254 255 249 250 251 246 258 253 239 249
203 201 227 233 238 241 236 239 249 247 249 257 258 260 262 249 257 256 251 253 246 248
215 219 229 234 241 237 233 238 249 248 244 246 253 257 263 263 262 259 261 254 247 244
232 230 238 240 236 238 238 238 241 254 257 254 251 254 253 255 256 256 262 259 252 250
223 232 237 243 240 243 250 252 253 262 259 267 265 262 262 266 272 273 293 295 280 257
249 258 253 247 253 250 253 263 262 265 270 266 278 280 271 276 280 280 269 267 268 262
256 264 273 265 253 260 252 255 263 276 277 290 284 270 280 275 294 290 283 276 275 264
271 279 285 279 290 314 314 303 282 278 287 260 282 283 302 338 315 287 287 289 273 258
336 347 339 341 329 286 274 277 289 291 280 280 281 294 304 337 286 303 310 310 297 289
16 15 0 324 294 312 324 325 324 318 323 332 346 333 342 5 322 311 308 308 313 314